Weather History for KRMY - April, 2013

Change the Weather History Date:

Saturday, April 20, 2013

  Actual Average (KBTL) Record (KBTL)
Temperature  
Mean Temperature 34 °F 50 °F  
Max Temperature 39 °F 62 °F 75 °F (2006)
Min Temperature 26 °F 38 °F 25 °F (2013)
Degree Days  
Heating Degree Days 32 15  
Month to date heating degree days 378  
Since 1 July heating degree days 6253  
Cooling Degree Days 0 0  
Month to date cooling degree days 0  
Year to date cooling degree days 0  
Moisture  
Dew Point 20 °F    
Average Humidity 60    
Maximum Humidity 91    
Minimum Humidity 39    
Precipitation  
Precipitation 0.00 in 0.10 in 0.39 in (2001)
Month to date precipitation 1.85  
Year to date precipitation 6.76  
Sea Level Pressure  
Sea Level Pressure 30.17 in    
Wind  
Wind Speed 11 mph (WNW)    
Max Wind Speed 17 mph    
Max Gust Speed 24 mph    
Visibility 10 miles    
Events Snow    
T = Trace of Precipitation, MM = Missing Value Source: NWS Daily Summary

Daily Weather History Graph

Daily Weather History Graph

Search for Another Location

Airport or City:

Trip Planner

Search our weather history database for the weather conditions in past years. The results will help you decide how hot, cold, wet, or windy it might be!

Date:

Astronomy

Apr. 20, 2013 Rise Set
Actual Time 6:50 AM EDT 8:27 PM EDT
Civil Twilight 6:21 AM EDT 8:56 PM EDT
Nautical Twilight 5:45 AM EDT 9:32 PM EDT
Astronomical Twilight 5:07 AM EDT 10:11 PM EDT
Moon 3:04 PM EDT (4/20) 3:46 AM EDT (4/20)
Length of Visible Light 14h 35m
Length of Day
13h 36m
Waxing Gibbous, 71% of the Moon is Illuminated
Apr 20
Waxing Gibbous
Apr 25
Full
May 2
Last Quarter
May 9
New
May 18
First Quarter

Hourly Weather History & Observations

Time (EDT) Temp. Windchill Dew Point Humidity Pressure Visibility Wind Dir Wind Speed Gust Speed Precip Events Conditions
12:13 AM 32.5 °F 23.2 °F 30.2 °F 91% 29.78 in 10.0 mi West 12.7 mph 17.3 mph N/A Snow Light Snow
12:34 AM 32.7 °F 25.0 °F 29.7 °F 88% 29.78 in 10.0 mi West 9.2 mph - N/A   Overcast
4:00 AM 31.5 °F 21.8 °F 26.4 °F 82% 29.87 in 10.0 mi West 12.7 mph 17.3 mph N/A Snow Light Snow
4:14 AM 31.1 °F 21.4 °F 26.2 °F 82% 29.88 in 10.0 mi West 12.7 mph 18.4 mph N/A Snow Light Snow
4:33 AM 30.9 °F 21.7 °F 24.4 °F 77% 29.89 in 10.0 mi West 11.5 mph 20.7 mph N/A   Overcast
4:54 AM 30.9 °F 20.2 °F 22.1 °F 70% 29.91 in 10.0 mi WNW 15.0 mph - N/A   Overcast
5:13 AM 30.4 °F 19.1 °F 21.4 °F 69% 29.92 in 10.0 mi WNW 16.1 mph 20.7 mph N/A   Overcast
5:33 AM 30.0 °F 20.5 °F 19.6 °F 65% 29.92 in 10.0 mi WNW 11.5 mph 24.2 mph N/A   Mostly Cloudy
5:54 AM 30.0 °F 20.5 °F 19.8 °F 66% 29.93 in 10.0 mi WNW 11.5 mph 18.4 mph N/A   Overcast
6:13 AM 29.5 °F 21.8 °F 20.7 °F 70% 29.95 in 10.0 mi WNW 8.1 mph - N/A   Overcast
6:33 AM 28.9 °F 20.4 °F 20.1 °F 70% 29.96 in 10.0 mi WNW 9.2 mph - N/A   Overcast
6:53 AM 28.9 °F 21.9 °F 20.3 °F 70% 29.98 in 10.0 mi WNW 6.9 mph 16.1 mph N/A   Overcast
7:14 AM 28.4 °F 19.7 °F 20.3 °F 72% 30.00 in 10.0 mi WNW 9.2 mph - N/A   Overcast
7:34 AM 28.8 °F 19.5 °F 20.5 °F 71% 30.01 in 10.0 mi WNW 10.4 mph 18.4 mph N/A   Overcast
7:53 AM 29.3 °F 20.8 °F 21.0 °F 71% 30.02 in 10.0 mi WNW 9.2 mph 16.1 mph N/A   Overcast
8:14 AM 28.8 °F 19.5 °F 21.0 °F 73% 30.04 in 10.0 mi WNW 10.4 mph - N/A   Mostly Cloudy
8:34 AM 30.0 °F 21.1 °F 21.7 °F 71% 30.05 in 10.0 mi WNW 10.4 mph - N/A   Mostly Cloudy
8:53 AM 30.7 °F 19.6 °F 21.7 °F 69% 30.06 in 10.0 mi WNW 16.1 mph 20.7 mph N/A   Mostly Cloudy
9:14 AM 30.9 °F 20.7 °F 20.5 °F 65% 30.07 in 10.0 mi WNW 13.8 mph 24.2 mph N/A   Mostly Cloudy
9:33 AM 31.1 °F 21.4 °F 20.5 °F 65% 30.08 in 10.0 mi WNW 12.7 mph 17.3 mph N/A   Overcast
9:53 AM 31.1 °F 21.9 °F 20.8 °F 66% 30.10 in 10.0 mi NW 11.5 mph 23.0 mph N/A   Overcast
10:14 AM 31.1 °F 23.1 °F 21.2 °F 67% 30.11 in 10.0 mi NW 9.2 mph - N/A   Overcast
10:33 AM 32.0 °F 23.0 °F 21.9 °F 66% 30.12 in 10.0 mi West 11.5 mph 16.1 mph N/A   Overcast
10:53 AM 33.4 °F 25.9 °F 22.8 °F 65% 30.13 in 10.0 mi WNW 9.2 mph - N/A   Overcast
11:14 AM 32.9 °F 24.7 °F 20.7 °F 61% 30.14 in 10.0 mi West 10.4 mph 17.3 mph N/A   Overcast
11:33 AM 33.4 °F 23.9 °F 20.5 °F 59% 30.15 in 10.0 mi West 13.8 mph 19.6 mph N/A   Overcast
11:53 AM 34.0 °F 24.2 °F 21.0 °F 59% 30.16 in 10.0 mi West 15.0 mph 20.7 mph N/A   Overcast
12:14 PM 34.3 °F 25.5 °F 22.8 °F 63% 30.17 in 10.0 mi West 12.7 mph 18.4 mph N/A   Overcast
12:33 PM 34.0 °F 23.8 °F 22.8 °F 64% 30.18 in 10.0 mi West 16.1 mph 20.7 mph N/A   Overcast
12:52 PM 35.1 °F 26.4 °F 22.8 °F 61% 30.19 in 10.0 mi West 12.7 mph 20.7 mph N/A   Overcast
1:14 PM 35.1 °F 26.4 °F 21.7 °F 58% 30.19 in 10.0 mi West 12.7 mph 17.3 mph N/A   Overcast
1:33 PM 34.9 °F 25.7 °F 21.2 °F 57% 30.20 in 10.0 mi West 13.8 mph 18.4 mph N/A   Overcast
1:54 PM 36.1 °F 27.7 °F 23.2 °F 59% 30.21 in 10.0 mi WNW 12.7 mph - N/A   Overcast
2:14 PM 36.7 °F 27.6 °F 21.7 °F 55% 30.21 in 10.0 mi West 15.0 mph 20.7 mph N/A   Mostly Cloudy
2:33 PM 37.0 °F 28.1 °F 21.9 °F 54% 30.22 in 10.0 mi West 15.0 mph 19.6 mph N/A   Overcast
2:52 PM 38.7 °F 29.5 °F 23.7 °F 55% 30.23 in 10.0 mi West 17.3 mph - N/A   Mostly Cloudy
3:13 PM 38.8 °F 30.8 °F 21.2 °F 49% 30.24 in 10.0 mi WSW 13.8 mph 23.0 mph N/A   Mostly Cloudy
3:34 PM 39.0 °F 29.9 °F 20.5 °F 47% 30.25 in 10.0 mi West 17.3 mph 24.2 mph N/A   Mostly Cloudy
3:53 PM 38.5 °F 30.3 °F 19.9 °F 47% 30.25 in 10.0 mi West 13.8 mph - N/A   Overcast
4:13 PM 38.1 °F 29.8 °F 19.6 °F 47% 30.26 in 10.0 mi West 13.8 mph 18.4 mph N/A   Overcast
4:34 PM 37.6 °F 29.6 °F 18.3 °F 46% 30.27 in 10.0 mi WNW 12.7 mph 18.4 mph N/A   Mostly Cloudy
4:53 PM 36.3 °F 27.5 °F 18.0 °F 47% 30.28 in 10.0 mi WNW 13.8 mph 17.3 mph N/A   Mostly Cloudy
5:14 PM 39.0 °F 31.8 °F 18.1 °F 43% 30.28 in 10.0 mi WSW 11.5 mph - N/A   Mostly Cloudy
5:34 PM 39.2 °F 30.8 °F 16.0 °F 39% 30.29 in 10.0 mi West 15.0 mph 19.6 mph N/A   Scattered Clouds
5:53 PM 39.7 °F 32.3 °F 17.2 °F 40% 30.30 in 10.0 mi West 12.7 mph 18.4 mph N/A   Mostly Cloudy
6:14 PM 37.8 °F 30.7 °F 15.8 °F 41% 30.30 in 10.0 mi NW 10.4 mph 16.1 mph N/A   Mostly Cloudy
6:33 PM 38.3 °F 30.9 °F 15.8 °F 40% 30.31 in 10.0 mi West 11.5 mph 16.1 mph N/A   Scattered Clouds
6:53 PM 37.0 °F 31.0 °F 14.7 °F 40% 30.32 in 10.0 mi WNW 8.1 mph 17.3 mph N/A   Scattered Clouds
7:14 PM 36.9 °F 28.7 °F 14.7 °F 40% 30.32 in 10.0 mi WNW 12.7 mph 16.1 mph N/A   Scattered Clouds
7:33 PM 36.0 °F 30.3 °F 15.1 °F 43% 30.33 in 10.0 mi West 6.9 mph - N/A   Clear
7:53 PM 35.4 °F 29.0 °F 14.9 °F 43% 30.33 in 10.0 mi WNW 8.1 mph - N/A   Scattered Clouds
8:14 PM 34.2 °F 29.0 °F 15.6 °F 47% 30.34 in 10.0 mi NW 5.8 mph - N/A   Clear
8:32 PM 33.6 °F 30.6 °F 15.8 °F 48% 30.35 in 10.0 mi NW 3.5 mph - N/A   Clear
8:53 PM 32.7 °F 29.6 °F 14.4 °F 47% 30.36 in 10.0 mi NW 3.5 mph - N/A   Clear
9:14 PM 32.0 °F - 14.9 °F 49% 30.37 in 10.0 mi Calm Calm - N/A   Clear
9:34 PM 30.6 °F - 15.8 °F 54% 30.39 in 10.0 mi Calm Calm - N/A   Clear
9:54 PM 30.7 °F - 16.0 °F 54% 30.40 in 10.0 mi Calm Calm - N/A   Clear
10:14 PM 28.2 °F - 17.6 °F 64% 30.40 in 10.0 mi Calm Calm - N/A   Clear
10:33 PM 29.8 °F - 16.5 °F 58% 30.41 in 10.0 mi Calm Calm - N/A   Clear
10:54 PM 28.8 °F - 17.2 °F 62% 30.41 in 10.0 mi Calm Calm - N/A   Clear
11:14 PM 29.1 °F - 15.4 °F 57% 30.42 in 10.0 mi Calm Calm - N/A   Clear
11:33 PM 28.8 °F - 17.6 °F 63% 30.42 in 10.0 mi Calm Calm - N/A   Clear
11:54 PM 26.1 °F - 19.0 °F 75% 30.42 in 10.0 mi Calm Calm - N/A   Clear